RH
86 87 88 89 88 88 89 89 89 89 89 89 90 91 91 91 84 20 13 20 37 86 79 37 40 37 34 35 46 62 86 86 59 58 43 28 31 30 25 29 31 38 44 38 32
86 86 88 90 91 89 90 89 87 88 89 89 91 91 90 90 48 21 28 70 73 85 36 24 22 23 30 33 37 73 87 57 41 37 31 28 34 38 38 40 43 43 38 32 31
85 86 90 91 90 89 89 89 89 88 89 89 90 91 90 89 31 11 65 64 69 80 18 16 19 22 24 23 28 48 50 32 25 22 23 32 36 36 43 47 44 45 39 34 32
86 90 92 90 89 89 88 90 90 90 89 89 88 90 90 58 21 14 68 67 69 43 16 18 21 26 22 31 26 44 32 28 24 20 26 33 32 42 45 43 35 35 33 33 33
88 91 92 89 89 89 90 92 92 91 89 88 86 87 57 33 19 19 60 64 50 23 16 19 22 23 22 25 25 29 33 27 26 20 22 24 33 38 35 34 31 32 33 35 34
85 90 91 88 87 88 91 92 91 91 89 86 84 88 67 28 9 16 25 32 16 18 16 16 20 18 16 25 28 29 27 28 31 24 22 27 29 31 33 31 32 33 36 35 34
88 90 91 91 91 90 90 91 91 89 87 84 82 55 32 19 8 8 12 9 12 12 16 14 14 12 13 27 26 28 39 38 35 29 24 26 38 32 28 30 34 36 36 35 32
90 90 90 90 90 91 91 92 91 88 85 83 81 56 36 11 10 8 7 7 8 10 13 14 12 14 16 22 28 41 43 55 32 28 30 43 63 43 29 30 35 36 34 34 34
90 90 90 89 90 91 92 92 88 84 81 76 74 52 27 16 9 6 6 6 8 9 10 8 12 16 15 24 51 44 50 47 40 22 29 43 68 47 32 29 32 33 35 34 36
90 90 90 91 93 94 93 90 75 76 64 35 26 30 22 13 6 5 4 4 7 9 10 13 17 21 21 28 41 48 47 40 47 31 29 57 68 46 37 30 30 32 34 36 34
92 91 92 94 94 94 90 47 40 45 32 28 22 15 9 10 6 4 3 5 7 9 15 15 22 23 20 20 23 21 31 37 25 21 29 56 69 58 56 49 40 38 35 36 33
94 94 94 91 91 89 91 45 23 18 22 15 17 18 14 10 6 6 6 9 10 14 13 16 20 15 13 15 18 17 18 40 31 23 31 60 73 69 73 56 52 42 33 32 31
94 94 94 94 86 79 38 26 15 14 25 17 12 12 14 10 6 7 6 7 10 13 12 16 15 10 11 13 14 16 19 41 32 26 42 49 69 65 60 48 42 48 31 28 29
94 94 93 96 62 40 30 16 14 15 36 19 14 10 9 10 9 5 5 6 8 11 11 12 9 9 10 12 14 21 14 16 19 41 67 55 76 60 53 44 38 39 49 35 36
93 94 95 97 70 50 21 16 13 19 46 13 10 6 7 9 8 7 5 6 8 9 11 12 10 9 10 10 9 16 12 13 22 52 55 61 81 71 52 57 44 32 37 34 31
94 94 94 58 64 49 33 26 17 38 34 11 9 9 8 8 7 7 6 6 6 7 7 9 7 8 8 7 7 8 14 16 46 56 79 78 68 59 68 50 41 33 36 30 29
95 94 92 62 46 26 29 24 41 40 14 10 12 9 11 10 9 8 7 8 11 20 12 9 7 6 6 8 8 10 30 31 44 78 84 66 62 54 44 36 40 41 45 41 25
96 93 77 58 50 42 31 36 48 20 13 8 9 9 9 8 9 7 8 10 8 9 10 13 12 8 6 7 10 13 19 30 37 68 73 52 58 53 38 41 42 47 36 31 30
96 52 39 39 45 36 42 41 32 22 12 10 11 14 13 9 8 8 7 9 8 7 10 12 10 6 6 5 7 10 16 16 21 26 57 66 56 37 36 31 48 35 32 23 25
89 61 44 24 29 30 43 41 22 13 12 12 17 16 17 13 11 11 9 7 7 6 6 8 10 7 5 6 6 10 13 19 26 36 51 61 56 56 48 44 43 20 29 36 32
75 53 24 19 20 40 41 29 16 10 10 14 15 15 15 16 14 14 10 8 5 5 6 7 9 7 8 10 9 12 15 22 19 26 41 63 63 36 42 48 44 27 29 37 31
51 52 22 19 40 37 32 23 26 12 10 13 14 13 15 13 16 16 14 8 5 5 8 8 9 14 10 6 7 10 12 15 23 23 34 39 45 28 31 37 43 46 36 34 36
66 46 25 22 43 31 21 17 14 12 12 13 14 11 11 14 20 18 15 10 8 7 13 21 15 17 14 9 8 12 12 13 14 17 26 36 46 28 25 30 27 32 39 42 41
65 52 36 32 28 27 24 23 20 12 11 13 13 12 13 17 16 21 16 11 10 10 39 19 9 12 19 15 14 13 12 12 13 20 25 33 41 39 38 44 37 38 42 48 50
62 46 42 52 45 40 29 22 18 17 13 13 20 13 15 24 23 21 16 13 15 33 14 10 13 14 11 9 7 7 6 9 13 13 17 36 32 33 39 36 23 44 44 47 51
68 61 51 70 58 38 37 30 17 15 19 21 22 13 14 21 21 22 20 34 36 26 21 13 18 28 19 11 8 8 7 6 9 9 12 23 30 26 22 22 24 37 39 46 49
61 56 58 56 54 59 42 32 25 23 28 19 19 22 22 23 31 29 21 25 27 32 33 34 44 50 24 14 12 13 11 9 9 10 11 14 13 17 20 15 19 36 38 42 44
Wind_Speed
17 17 17 16 18 18 17 17 17 17 17 18 18 18 17 18 23 7 9 7 4 15 3 8 12 16 16 8 10 6 3 4 5 2 1 3 5 9 12 13 9 6 20 14 13
18 18 17 17 17 17 17 17 18 18 18 18 18 18 16 17 6 11 8 9 7 12 4 8 14 14 5 7 7 9 4 9 8 4 5 8 11 7 5 7 20 20 14 18 12
18 18 18 18 19 19 19 18 19 20 20 19 19 18 17 15 6 7 8 13 9 9 4 7 12 15 14 7 2 8 5 8 4 4 11 10 8 7 8 4 19 22 21 17 13
16 18 18 20 20 20 19 19 19 20 20 19 18 18 21 4 3 4 11 12 10 8 6 7 8 9 9 5 5 4 10 5 6 4 15 8 8 8 5 7 17 17 18 16 16
17 18 18 21 21 21 19 18 18 20 20 19 17 16 9 3 12 7 9 7 7 5 7 10 13 16 5 4 7 4 2 10 13 6 8 11 12 6 6 18 19 19 14 13 10
20 18 18 20 21 21 20 19 19 19 19 17 14 15 2 6 10 11 9 9 9 8 8 13 10 16 6 9 7 14 18 23 11 12 4 5 6 11 18 22 19 16 13 13 11
17 18 19 19 20 21 21 21 20 20 18 15 10 5 5 18 7 8 10 7 8 10 13 15 12 8 8 2 4 9 9 6 17 9 5 5 6 9 12 18 18 14 10 11 11
17 18 19 20 21 22 22 22 21 19 17 11 5 4 10 9 12 13 15 9 10 11 13 11 9 7 4 2 6 5 6 2 9 10 4 14 6 8 7 14 13 16 14 11 10
18 19 20 22 22 22 23 27 23 16 11 6 3 4 11 5 6 10 6 9 8 9 9 13 9 5 10 6 1 8 2 6 12 7 9 8 6 16 11 12 13 12 11 11 7
19 21 22 23 22 22 27 26 8 7 5 8 8 5 8 7 9 9 9 10 8 9 11 9 6 7 6 3 5 7 3 8 6 6 11 20 6 21 7 9 14 13 12 9 8
19 21 23 25 25 20 16 6 1 2 4 8 8 6 14 10 9 5 10 9 10 8 7 10 4 9 12 9 10 10 14 17 4 3 4 16 18 11 13 15 4 10 13 10 10
19 20 22 27 28 23 4 4 8 5 10 12 19 21 21 15 4 7 6 4 8 8 9 7 10 15 18 6 18 3 2 10 22 12 11 14 10 5 16 8 6 7 16 15 13
19 20 22 28 34 5 6 12 10 8 6 14 20 18 15 9 8 12 11 9 8 9 12 8 14 16 17 17 8 4 2 9 16 3 12 6 7 6 10 14 3 6 16 17 17
20 20 21 28 4 9 7 9 7 6 4 9 8 11 14 14 12 15 10 11 9 11 13 10 12 15 16 13 7 4 3 3 3 9 5 8 6 9 7 12 8 5 7 15 13
20 19 18 7 9 6 9 14 9 3 5 8 7 4 7 11 4 7 15 8 11 10 7 13 13 10 11 12 9 6 5 6 17 16 8 18 5 11 8 11 11 9 4 12 16
20 19 15 5 4 12 16 17 7 1 8 5 8 8 5 9 15 6 8 8 9 10 12 12 12 6 8 12 9 10 5 6 9 5 7 11 3 10 4 9 7 14 10 12 18
21 22 10 6 7 7 13 6 1 5 10 8 6 9 10 9 12 9 11 8 6 3 7 11 13 13 8 7 8 7 2 4 3 6 4 8 6 11 10 12 11 15 13 24 19
23 29 8 10 9 10 4 3 5 10 10 12 0 8 10 10 11 11 7 8 9 9 6 7 9 14 11 11 10 8 6 7 5 6 4 10 7 7 1 8 9 16 21 21 9
25 5 6 6 12 5 2 4 6 6 15 13 11 5 8 7 9 12 11 9 10 12 9 4 10 9 7 12 9 10 7 9 4 2 5 5 4 8 2 6 11 25 3 3 5
8 6 8 11 13 5 3 7 9 15 19 13 7 7 11 13 8 9 11 11 10 11 11 10 9 9 16 6 8 9 6 4 5 2 1 2 3 7 5 5 10 1 6 10 1
3 5 2 11 9 2 5 7 15 20 18 6 9 10 14 15 11 7 11 8 11 12 10 10 7 17 8 4 9 2 4 4 1 4 5 5 7 7 14 11 15 9 9 10 6
5 4 5 7 3 4 8 9 10 21 21 2 4 8 12 14 11 10 10 8 9 11 8 8 6 6 11 14 7 9 8 8 7 11 3 8 5 7 13 12 10 15 11 8 6
5 6 8 5 5 8 14 18 20 19 16 5 6 7 10 10 8 9 16 11 9 1 1 2 3 3 10 13 10 6 7 6 3 2 4 6 5 2 4 1 16 22 11 9 9
5 4 3 4 7 12 12 13 16 18 10 4 9 12 9 8 9 8 13 13 17 3 7 7 3 5 7 11 7 7 6 8 7 1 6 1 3 8 8 14 22 13 14 11 9
4 4 4 3 7 13 14 15 20 17 5 8 4 9 10 7 9 9 11 15 12 4 5 6 5 6 10 10 10 11 10 10 9 9 5 9 13 14 13 20 11 8 9 12 10
4 6 7 9 8 11 13 12 15 17 10 6 7 9 9 7 8 12 11 5 4 12 3 2 6 4 8 11 13 12 13 12 7 9 7 16 7 11 17 20 12 14 17 14 13
6 7 6 7 6 6 9 7 19 14 10 15 11 8 6 4 4 7 10 6 6 5 4 3 4 6 7 9 10 10 10 8 8 4 7 7 9 18 12 11 11 14 17 18 17
Wind_Direction
7 4 359 352 347 346 343 341 338 334 331 325 323 325 326 326 311 286 266 250 176 165 217 266 205 239 238 177 127 122 50 262 251 226 158 138 91 72 90 88 54 95 144 141 157
2 359 348 349 346 346 342 337 335 329 327 325 322 323 326 335 294 267 238 171 159 152 209 264 285 297 204 142 129 131 224 240 211 204 137 162 101 85 70 30 109 118 140 138 157
359 350 348 349 347 344 339 329 329 327 324 324 323 323 323 323 285 240 142 161 170 176 266 287 282 287 296 88 187 156 223 303 162 65 113 103 99 118 130 134 133 139 142 153 150
349 346 344 347 343 338 331 325 325 322 319 320 323 323 315 239 311 84 165 173 174 220 250 266 270 283 306 181 184 153 303 265 345 321 116 143 126 140 170 169 142 142 148 157 160
346 341 341 345 339 333 324 319 319 319 316 317 320 327 343 278 251 166 166 172 166 198 230 253 271 280 144 208 348 215 22 360 305 294 129 149 154 159 146 130 135 144 157 156 162
347 338 336 339 336 328 319 315 316 314 310 310 315 316 251 268 245 155 187 159 221 200 245 245 253 274 52 81 93 79 42 345 323 290 308 121 133 128 130 127 132 142 159 166 172
336 337 331 328 323 321 317 313 312 310 305 305 309 301 261 241 277 320 191 215 202 228 241 255 269 2 339 111 77 99 102 244 285 294 224 90 36 109 128 127 134 147 170 176 177
334 331 328 325 321 318 314 312 306 301 297 296 277 264 253 265 247 265 274 271 246 234 251 283 295 331 291 326 35 54 49 16 281 274 94 86 284 293 133 129 146 158 171 182 183
332 330 326 323 320 318 316 308 300 282 264 256 226 220 266 265 222 240 250 245 250 262 279 276 284 266 301 194 27 28 182 236 290 243 132 65 347 304 269 155 159 160 163 171 188
330 330 326 324 322 324 321 296 280 309 218 216 258 293 259 243 238 213 212 250 254 251 241 245 265 262 260 196 244 189 251 299 212 231 105 103 142 269 290 164 165 162 156 163 181
326 328 328 327 323 326 339 344 12 36 256 223 203 252 303 237 294 176 199 216 243 265 248 246 229 250 257 212 231 242 155 240 16 248 117 155 109 320 336 14 262 162 157 165 181
325 327 327 324 316 318 279 269 302 313 295 248 242 249 264 279 296 231 283 245 204 248 262 262 243 245 266 187 289 239 116 56 329 290 55 99 89 249 10 312 293 235 167 176 177
325 324 323 322 317 293 235 264 308 301 288 281 231 231 232 252 226 253 175 237 240 223 258 231 244 251 255 267 267 291 177 147 216 167 58 147 139 154 203 252 274 325 181 182 180
323 325 330 331 337 335 278 338 314 337 296 268 186 212 225 222 260 230 239 183 227 231 230 250 262 267 274 283 249 233 216 271 315 62 49 332 297 311 279 302 319 235 273 179 190
320 321 328 310 302 295 304 326 306 324 307 156 118 167 171 181 255 200 223 234 224 229 235 251 243 261 276 275 297 260 289 318 70 102 79 1 18 275 298 307 279 269 252 205 185
314 317 334 325 229 252 290 288 313 282 248 168 146 180 208 197 234 278 197 233 194 245 271 262 279 270 245 268 271 290 320 332 79 96 74 257 256 280 251 241 284 270 266 243 176
311 305 299 276 238 338 329 313 263 238 313 160 173 176 187 214 233 247 197 235 189 215 263 283 276 279 271 304 303 294 164 298 19 12 199 211 190 263 313 270 276 281 315 278 186
314 308 244 210 226 254 272 317 251 255 248 298 224 177 173 197 208 232 235 198 222 232 269 213 286 236 230 213 217 253 194 167 251 174 174 169 216 251 220 95 268 268 256 261 161
311 288 259 222 211 242 283 238 232 237 341 343 337 199 268 214 199 195 224 211 210 190 216 300 266 294 277 211 184 257 277 238 282 354 103 188 285 294 175 296 258 245 269 148 154
317 284 255 232 156 187 229 250 275 313 302 317 335 335 326 315 225 191 198 221 226 221 185 240 275 279 302 142 225 175 225 335 337 344 76 261 207 226 223 249 282 153 277 305 108
253 279 222 167 161 184 232 249 275 268 274 281 306 302 311 317 332 314 209 233 211 232 215 205 189 280 341 242 192 259 254 268 152 149 189 139 263 216 192 199 229 227 226 266 167
302 271 199 147 182 211 232 247 261 276 281 219 242 301 291 315 320 331 312 178 245 221 209 223 193 239 250 277 262 192 210 189 133 279 208 130 252 305 183 193 245 268 238 203 144
290 281 275 181 239 240 258 245 253 271 281 336 302 267 269 282 308 322 324 321 316 59 11 254 293 292 325 326 320 195 212 237 236 222 223 142 255 223 131 225 229 218 181 145 151
280 282 233 183 233 271 294 288 289 265 238 270 298 308 304 299 307 305 310 314 324 110 106 53 338 192 209 224 251 321 216 214 208 245 265 128 134 2 35 16 291 150 159 150 152
250 278 358 310 330 323 288 278 291 306 238 177 241 270 292 315 323 306 298 298 326 219 141 137 227 274 281 279 289 284 289 237 200 213 218 192 135 156 156 199 238 178 150 144 150
299 337 340 296 285 295 300 290 268 295 319 322 192 234 242 238 263 275 308 3 331 331 287 207 252 268 292 301 300 299 295 296 236 211 227 156 200 197 186 209 217 180 168 158 164
342 331 302 299 286 298 286 302 314 320 346 321 309 331 330 335 345 311 314 292 239 293 340 15 69 32 270 278 301 302 271 285 283 277 201 217 233 158 180 203 209 181 174 173 176